Location: Lecco
(45.8566°N, 9.3977°E)
Time: 22:57:34
(UTC+02:00)

S-56A Canister/Altair - Pass Details

Date: 27 July 2019
Orbit: 633 x 2499 km, 38.9° (Epoch: 23 August)

Event Time Altitude Azimuth Distance (km) Brightness Sun altitude
Rises 08:35:31 0° 259° (W) 4,873 11.1 25.1°
Reaches altitude 10° 08:38:22 10° 256° (WSW) 4,105 10.8 25.6°
Maximum altitude 08:49:50 65° 179° (S) 2,417 10.5 27.6°
Drops below altitude 10° 09:04:34 10° 103° (ESE) 5,162 13.3 30.2°
Sets 09:08:39 0° 100° (E) 6,160 13.3 30.9°
